Tracking 25648 objects as of 16-May-2022
HD Live streaming from Space Station
objects crossing your sky now

COSMOS 2251 DEB

Track COSMOS 2251 DEB now!
10-day predictions


NORAD ID: 35771
Int'l Code: 1993-036ARR
Perigee: 746.1 km
Apogee: 1,188.5 km
Inclination: 74.2 °
Period: 104.3 minutes
Semi major axis: 7338 km
RCS: 0.0095 m2 (small)
Launch date: June 16, 1993
Source: Commonwealth of Independent States (former USSR) (CIS)
Launch site: PLESETSK MISSILE AND SPACE COMPLEX (PKMTR)

Note: This is SATELLITE DEBRIS
aabbcc
Your satellite tracking list
Your tracking list is empty




NASA's NSSDC Master Catalog

Two Line Element Set (TLE):
1 35771U 93036ARR 22135.66526428  .00004823  00000-0  32479-2 0  9990
2 35771  74.1838  13.7588 0301433 292.8757  64.0803 13.81056515646486
Source of the keplerian elements: AFSPC